Starlink 30993

operational
NORAD ID: 58489 Int'l Des: 2023-186 Owner: SPXS Country: US Constellation: starlink
LEOCIRCULAR

关于 Starlink 30993

正在加载描述...

实时位置

正在加载3D地球...

即将过境

高度历史

Altitude vs Time

uPlot chart will show altitude changes over time

两行轨道根数

1 58489U 23186S 25352.12675173 .00001550 00000-0 12980-3 0 9997
2 58489 43.0009 150.5244 0001316 267.2292 92.8399 15.02540021113571
Epoch: Dec 18, 2025 • Age: 17 hours

当前状态

高度 571.5 km
速度 7.58 km/s
星下点 -43.04°S, 21.12°E
发射日期 Dec 3, 2023
运行时间 2 years
类型 internet

技术详情

分类 Payload
质量 730.00 kg
干质量 700.00 kg
总质量 730.00 kg
长度 0.30 m
直径 4.10 m
跨度 29.00 m
形状 Box + pan
制造商 SPXS
平台类型 Starlink V2M
阶段状态 In Orbit
所有者/国家 SPXS/US

大型星座

Loading constellations...